FLOCK 4V-25

Last updated on Thu Nov 26 2020 00:02:04 GMT+0000 (Coordinated Universal Time)

1 46812U 20061BP 20330.21010996 .00001257 00000-0 69310-4 0 9994 2 46812 97.4552 41.8227 0004316 293.1255 66.9520 15.15788926 4576

Satellite not in orbit

FLOCK 4V-25